DW2227 Weather Reports


time (UTC)temp
C
wind
direction
speed
KPH
gust
KPH
rain 1hr
cm
rain 24hr
cm
rain mn
cm
humidity
%
barometer
mb
20260504150827 22 198 0.0 0.0 0.00 0.00 0.00 47 1001.3
20260504150330 22 168 0.0 0.0 0.00 0.00 0.00 49 1001.3
20260504140817 19 35 0.0 0.0 0.00 0.00 0.00 54 1002.1
20260504140320 18 178 0.0 0.0 0.00 0.00 0.00 53 1002.1
20260504130328 14 245 0.0 0.0 0.00 0.00 0.00 69 1003.1
20260504110316 8 360 0.0 0.0 0.00 0.00 0.00 82 1003.1
20260504100350 6 360 0.0 0.0 0.00 0.00 0.00 86 1003.6
20260504081824 7 360 0.0 0.0 0.00 0.00 0.00 83 1004.6
20260504081326 7 360 0.0 0.0 0.00 0.00 0.00 83 1004.5
20260504080826 7 360 0.0 0.0 0.00 0.00 0.00 83 1004.6
20260504080329 8 360 0.0 0.0 0.00 0.00 0.00 82 1004.6
20260504070333 9 360 0.0 0.0 0.00 0.00 0.00 76 1005.2
20260504050322 14 145 0.0 0.0 0.00 0.00 0.00 59 1006.2
20260504045820 14 220 0.0 0.0 0.00 0.00 0.00 59 1006.2
20260504045323 14 220 0.0 0.0 0.00 0.00 0.00 59 1006.2
20260504044828 14 138 0.0 0.0 0.00 0.00 0.00 57 1006.3
20260504044333 15 221 0.0 0.0 0.00 0.00 0.00 57 1006.2
20260504043856 15 37 0.0 0.0 0.00 0.00 0.00 57 1006.2
20260504043339 15 146 0.0 0.0 0.00 0.00 0.00 56 1006.3
20260504042822 15 146 0.0 0.0 0.00 0.00 0.00 56 1006.3
20260504042325 15 278 0.0 0.0 0.00 0.00 0.00 56 1006.3
20260504041824 15 171 0.0 0.0 0.00 0.00 0.00 55 1006.3
20260504041327 15 171 0.0 0.0 0.00 0.00 0.00 55 1006.3
20260504040852 15 225 0.0 0.0 0.00 0.00 0.00 54 1006.3
20260504040335 15 159 0.0 0.0 0.00 0.00 0.00 54 1006.3
20260504035818 15 234 0.0 0.0 0.00 0.00 0.00 53 1006.3
20260504035343 16 172 0.0 0.0 0.00 0.00 0.00 53 1006.5
20260504034826 16 297 0.0 0.0 0.00 0.00 0.00 53 1006.5
20260504034329 16 65 0.0 0.0 0.00 0.00 0.00 53 1006.6
20260504033853 16 227 0.0 0.0 0.00 0.00 0.00 52 1006.6
20260504033336 16 115 0.0 0.0 0.00 0.00 0.00 51 1006.6
20260504032856 16 87 0.0 0.0 0.00 0.00 0.00 51 1006.6
20260504032341 16 204 0.0 0.0 0.00 0.00 0.00 51 1006.6
20260504031824 16 157 0.0 0.0 0.00 0.00 0.00 51 1006.6
20260504031328 16 209 0.0 0.0 0.00 0.00 0.00 50 1006.6
20260504030832 16 34 0.0 0.0 0.00 0.00 0.00 50 1006.6
20260504030335 16 136 0.0 0.0 0.00 0.00 0.00 51 1006.4
20260504025838 16 202 0.0 0.0 0.00 0.00 0.00 49 1006.4
20260504025322 17 97 0.0 0.0 0.00 0.00 0.00 50 1006.4
20260504024825 17 293 0.0 0.0 0.00 0.00 0.00 49 1006.4
20260504024351 17 98 0.0 0.0 0.00 0.00 0.00 48 1006.3
20260504023830 17 206 0.0 0.0 0.00 0.00 0.00 48 1006.3
20260504023329 17 174 0.0 0.0 0.00 0.00 0.00 48 1006.3
20260504022830 17 130 0.0 0.0 0.00 0.00 0.00 47 1006.2
20260504022354 17 121 0.0 0.0 0.00 0.00 0.00 47 1006.2
20260504021835 17 168 0.0 0.0 0.00 0.00 0.00 46 1006.1
20260504021317 17 86 0.0 0.0 0.00 0.00 0.00 46 1006.2
20260504020843 18 76 0.0 0.0 0.00 0.00 0.00 45 1006.1
20260504020326 18 115 0.0 0.0 0.00 0.00 0.00 45 1006.1
20260504015828 18 226 0.0 0.0 0.00 0.00 0.00 44 1006.1
20260504015331 18 226 0.0 0.0 0.00 0.00 0.00 44 1006.1
20260504014834 18 360 0.0 0.0 0.00 0.00 0.00 43 1006.0
20260504014318 18 97 0.0 0.0 0.00 0.00 0.00 43 1006.1
20260504013843 19 360 0.0 0.0 0.00 0.00 0.00 43 1006.0
20260504013321 19 360 0.0 0.0 0.00 0.00 0.00 43 1005.9
20260504012824 19 360 0.0 0.0 0.00 0.00 0.00 42 1005.9
20260504012327 19 360 0.0 0.0 0.00 0.00 0.00 43 1005.9
20260504011830 20 360 0.0 0.0 0.00 0.00 0.00 42 1005.7
20260504011354 20 360 0.0 0.0 0.00 0.00 0.00 42 1005.8
20260504010836 20 360 0.0 0.0 0.00 0.00 0.00 41 1005.7
20260504010317 20 286 0.0 0.0 0.00 0.00 0.00 41 1005.6
20260504005820 20 78 0.0 0.0 0.00 0.00 0.00 40 1005.6
20260504005345 21 163 0.0 0.0 0.00 0.00 0.00 40 1005.6
20260504004828 21 34 0.0 0.0 0.00 0.00 0.00 40 1005.5
20260504004331 21 292 0.0 0.0 0.00 0.00 0.00 40 1005.5
20260504003834 21 25 0.0 0.0 0.00 0.00 0.00 39 1005.5
20260504003333 21 62 0.0 0.0 0.00 0.00 0.00 40 1005.5
20260504002837 21 250 0.0 0.0 0.00 0.00 0.00 38 1005.5
20260504002318 21 355 0.0 0.0 0.00 0.00 0.00 39 1005.5
20260504001821 22 147 0.0 0.0 0.00 0.00 0.00 39 1005.5
20260504001324 22 217 0.0 0.0 0.00 0.00 0.00 37 1005.5
20260504000828 22 242 0.0 0.0 0.00 0.00 0.00 37 1005.5
20260504000331 22 182 0.0 0.0 0.00 0.00 0.00 37 1005.5
20260503235834 22 271 0.0 0.0 0.00 0.00 0.00 38 1005.5
20260503235317 22 252 0.0 0.0 0.00 0.00 0.00 37 1005.5
20260503234820 22 134 0.0 0.0 0.00 0.00 0.00 38 1005.5
20260503234322 22 277 0.0 0.0 0.00 0.00 0.00 38 1005.5
20260503233823 22 228 0.0 0.0 0.00 0.00 0.00 37 1005.6
20260503233326 22 279 0.0 0.0 0.00 0.00 0.00 37 1005.5
20260503232830 22 163 0.0 0.0 0.00 0.00 0.00 40 1005.7
20260503232332 22 304 0.0 0.0 0.00 0.00 0.00 38 1005.7
20260503231817 22 198 0.0 0.0 0.00 0.00 0.00 37 1005.7
20260503231337 22 107 0.0 0.0 0.00 0.00 0.00 39 1005.8
20260503230820 22 317 0.0 1.6 0.00 0.00 0.00 39 1005.8
20260503230325 22 304 0.0 1.6 0.00 0.00 0.00 41 1005.9
20260503225849 22 251 0.0 0.0 0.00 0.00 0.00 40 1005.9
20260503225332 22 211 0.0 1.6 0.00 0.00 0.00 39 1005.8
20260503224835 22 252 0.0 1.6 0.00 0.00 0.00 38 1005.8
20260503224316 22 171 0.0 0.0 0.00 0.00 0.00 40 1005.7
20260503223821 22 291 0.0 9.7 0.00 0.00 0.00 39 1005.8
20260503223323 22 327 1.6 11.3 0.00 0.00 0.00 37 1005.7
20260503222829 23 232 4.8 14.5 0.00 0.00 0.00 37 1005.8
20260503222330 23 240 3.2 14.5 0.00 0.00 0.00 37 1005.8
20260503221855 23 355 3.2 6.4 0.00 0.00 0.00 37 1005.9
20260503221333 23 254 3.2 11.3 0.00 0.00 0.00 38 1005.8
20260503220825 23 257 3.2 11.3 0.00 0.00 0.00 37 1006.0
20260503220336 23 247 1.6 12.9 0.00 0.00 0.00 39 1005.9
20260503215825 23 274 4.8 12.9 0.00 0.00 0.00 40 1005.9
20260503215325 23 243 4.8 11.3 0.00 0.00 0.00 38 1006.1
20260503214832 23 241 4.8 9.7 0.00 0.00 0.00 37 1006.1
20260503214333 23 292 1.6 9.7 0.00 0.00 0.00 38 1006.1
20260503213840 23 142 3.2 9.7 0.00 0.00 0.00 37 1006.2
20260503213322 23 157 3.2 11.3 0.00 0.00 0.00 35 1006.1
20260503212845 23 231 3.2 11.3 0.00 0.00 0.00 36 1006.1
20260503212331 23 266 3.2 11.3 0.00 0.00 0.00 35 1006.2
20260503211832 23 306 3.2 9.7 0.00 0.00 0.00 35 1006.2
20260503211339 23 355 3.2 11.3 0.00 0.00 0.00 38 1006.2
20260503210816 23 168 3.2 9.7 0.00 0.00 0.00 38 1006.3
20260503210316 23 244 3.2 12.9 0.00 0.00 0.00 37 1006.4
20260503205843 23 265 3.2 12.9 0.00 0.00 0.00 37 1006.6
20260503205341 23 263 1.6 16.1 0.00 0.00 0.00 36 1006.7
20260503204846 23 259 4.8 16.1 0.00 0.00 0.00 35 1006.7
20260503204329 23 262 4.8 12.9 0.00 0.00 0.00 36 1006.7
20260503203827 22 171 3.2 9.7 0.00 0.00 0.00 37 1006.7
20260503203331 22 320 3.2 11.3 0.00 0.00 0.00 39 1006.7
20260503202839 22 174 3.2 11.3 0.00 0.00 0.00 38 1006.7
20260503202317 22 34 3.2 9.7 0.00 0.00 0.00 37 1006.7
20260503201817 22 263 3.2 12.9 0.00 0.00 0.00 38 1006.7
20260503201323 22 269 1.6 12.9 0.00 0.00 0.00 38 1006.8
20260503200844 22 265 3.2 12.9 0.00 0.00 0.00 39 1006.9
20260503200331 22 300 3.2 11.3 0.00 0.00 0.00 40 1006.8
20260503195829 22 106 3.2 11.3 0.00 0.00 0.00 38 1007.0
20260503195338 22 254 4.8 11.3 0.00 0.00 0.00 38 1006.9
20260503194817 22 13 1.6 12.9 0.00 0.00 0.00 39 1006.9
20260503194319 22 242 4.8 12.9 0.00 0.00 0.00 37 1007.1
20260503193820 22 269 3.2 8.0 0.00 0.00 0.00 40 1007.3
20260503193325 22 232 3.2 12.9 0.00 0.00 0.00 37 1007.2
20260503192825 22 301 4.8 12.9 0.00 0.00 0.00 40 1007.4
20260503192332 22 306 1.6 14.5 0.00 0.00 0.00 41 1007.4
20260503191831 21 289 3.2 14.5 0.00 0.00 0.00 39 1007.4
20260503191329 21 156 4.8 19.3 0.00 0.00 0.00 39 1007.4
20260503190815 21 292 3.2 12.9 0.00 0.00 0.00 42 1007.6
20260503190315 21 90 3.2 16.1 0.00 0.00 0.00 42 1007.6
20260503185816 21 298 4.8 16.1 0.00 0.00 0.00 40 1007.7
20260503185322 21 313 3.2 11.3 0.00 0.00 0.00 41 1007.6
20260503184825 21 304 4.8 19.3 0.00 0.00 0.00 41 1007.6
20260503184329 21 198 4.8 19.3 0.00 0.00 0.00 42 1007.7
20260503183829 20 273 4.8 14.5 0.00 0.00 0.00 44 1007.9
20260503183332 21 17 6.4 14.5 0.00 0.00 0.00 38 1007.9
20260503182840 21 236 3.2 9.7 0.00 0.00 0.00 41 1007.8
20260503182320 21 139 4.8 9.7 0.00 0.00 0.00 39 1007.9
20260503181818 21 341 3.2 12.9 0.00 0.00 0.00 40 1008.1
20260503181324 21 360 1.6 12.9 0.00 0.00 0.00 40 1008.1
20260503180822 20 360 4.8 16.1 0.00 0.00 0.00 43 1008.2
20260503180320 20 237 4.8 16.1 0.00 0.00 0.00 40 1008.2
20260503175826 20 360 6.4 16.1 0.00 0.00 0.00 41 1008.4
20260503175349 20 245 4.8 12.9 0.00 0.00 0.00 40 1008.5
20260503174826 20 88 3.2 9.7 0.00 0.00 0.00 41 1008.6
20260503174352 20 313 4.8 16.1 0.00 0.00 0.00 41 1008.8
20260503173829 20 205 4.8 16.1 0.00 0.00 0.00 41 1008.8
20260503173329 20 66 3.2 14.5 0.00 0.00 0.00 43 1009.1
20260503172814 19 323 1.6 16.1 0.00 0.00 0.00 45 1009.0
20260503172314 19 43 4.8 17.7 0.00 0.00 0.00 43 1009.1
20260503171840 19 312 4.8 20.9 0.00 0.00 0.00 44 1009.0
20260503171319 18 256 4.8 20.9 0.00 0.00 0.00 43 1009.0
20260503170845 18 60 6.4 14.5 0.00 0.00 0.00 42 1009.2
20260503170321 18 166 1.6 8.0 0.00 0.00 0.00 47 1009.1